Probability
0 0 0 0 0 0 0 0 0 0 0 0 0 0 0 0 0 0 0 0 0 0 3 0 0 0 3 3 3 6 3 3 3 3 3 6 6 6 3 6 0 0 0 0
0 0 0 0 0 0 0 0 0 0 0 0 0 0 0 0 0 0 0 0 0 0 0 0 0 0 0 3 3 3 3 6 3 3 3 3 3 3 6 3 0 0 0 0
0 0 0 0 0 0 0 0 0 0 0 0 0 0 0 0 0 0 0 0 0 0 0 0 0 0 0 0 3 3 3 3 3 0 3 3 3 3 0 0 0 0 0 0
0 0 0 0 0 0 0 0 0 0 0 0 0 0 0 0 0 0 0 0 0 0 0 0 0 0 0 0 0 3 3 3 3 3 3 0 0 0 0 0 0 0 0 0
0 0 0 0 0 0 0 0 0 0 0 0 0 0 0 0 0 0 0 0 0 0 0 0 0 0 0 0 0 0 3 3 3 3 3 0 0 0 0 0 0 0 0 0
0 0 0 0 0 0 0 0 0 0 0 0 0 0 0 0 0 0 0 0 0 0 0 0 0 0 3 0 0 0 0 0 0 3 3 3 0 0 0 0 0 0 0 0
0 0 0 0 0 0 0 0 0 0 0 0 0 0 0 0 0 0 0 0 0 0 0 0 0 0 0 0 0 0 0 0 0 0 3 3 3 3 0 0 0 0 0 0
0 0 0 0 0 0 0 0 0 0 0 0 0 0 0 0 0 0 0 0 0 0 0 0 0 0 0 0 0 0 0 0 0 0 0 0 0 0 0 0 0 0 0 0
0 0 0 0 0 0 0 0 0 0 0 0 0 0 0 0 0 0 0 0 0 0 0 0 0 0 0 0 0 0 0 0 0 0 0 0 0 0 0 0 0 0 0 0
0 0 0 0 0 0 0 0 0 0 0 0 0 0 0 0 0 0 0 0 0 0 0 0 0 0 0 0 0 0 0 0 0 0 0 0 0 0 0 0 0 0 0 0
0 0 0 0 0 0 0 0 0 0 0 0 0 0 0 0 0 0 0 0 0 0 0 0 0 0 0 0 0 0 0 0 0 0 0 0 0 0 0 0 0 0 0 0
0 0 0 0 0 0 0 0 0 0 0 0 0 0 0 0 0 0 0 0 0 0 0 0 0 0 0 0 0 0 0 0 0 0 0 0 0 0 0 0 0 0 0 0
0 0 0 0 0 0 0 0 0 0 0 0 0 0 0 0 0 0 0 0 0 0 0 0 0 0 0 0 0 0 0 0 0 0 0 0 0 0 0 0 0 0 0 0
0 0 0 0 0 0 0 0 0 0 0 0 0 0 0 0 0 0 0 0 0 0 0 0 0 0 0 0 0 0 0 0 0 0 0 0 0 0 0 0 0 0 0 0
0 0 0 0 0 0 0 0 0 0 0 0 0 0 0 0 0 0 0 0 0 0 0 0 0 0 0 0 0 0 0 0 0 0 0 0 0 0 0 0 0 0 0 0
0 0 0 0 0 0 0 0 0 0 0 0 0 0 0 0 0 0 0 0 0 0 0 0 0 0 0 0 0 0 0 0 0 0 0 0 0 0 0 0 0 0 0 0
0 0 0 0 0 0 0 0 0 0 0 0 0 0 0 0 0 0 0 0 0 0 0 0 0 0 0 0 0 0 0 0 0 0 0 0 0 0 0 0 0 0 0 0
0 0 0 0 0 0 0 0 0 0 0 0 0 0 0 0 0 0 0 0 0 0 0 0 0 0 0 0 0 0 0 0 0 0 0 0 0 0 0 0 0 0 0 0
0 0 0 0 0 0 0 0 0 0 0 0 0 0 0 0 0 0 0 0 0 0 0 0 0 0 0 0 0 0 0 0 0 0 0 0 0 0 0 0 0 0 0 0
0 0 0 0 0 0 0 0 0 0 0 0 0 0 0 0 0 0 0 0 0 0 0 0 0 0 0 0 0 0 0 0 0 0 0 0 0 0 0 0 0 0 0 0
0 0 0 0 0 0 0 0 0 0 0 0 0 0 0 0 0 0 0 0 0 0 0 0 0 0 0 0 0 0 0 0 0 0 0 0 0 0 0 0 0 0 0 0
0 0 0 0 0 0 0 0 0 0 0 0 0 0 0 0 0 0 0 0 0 0 0 0 0 0 0 0 0 0 0 0 0 0 0 0 0 0 0 0 0 0 0 0
0 0 0 0 0 0 0 0 0 0 0 0 0 0 0 0 0 0 0 0 0 0 0 0 0 0 0 0 0 0 0 0 0 0 0 0 0 0 0 0 0 0 0 0
0 0 0 0 0 0 0 0 0 0 0 0 0 0 0 0 0 0 0 0 0 0 0 0 0 0 0 0 0 0 0 0 0 0 0 0 0 0 0 0 0 0 0 0
0 0 0 0 0 0 0 0 0 0 0 0 0 0 0 0 0 0 0 0 0 0 0 0 0 0 0 0 0 0 0 0 0 0 0 0 0 0 0 0 0 0 0 0
0 0 0 0 0 0 0 0 0 0 0 0 0 0 0 0 0 0 0 0 0 0 0 0 0 0 0 0 0 0 0 0 0 0 0 0 0 0 0 0 0 0 0 0
Height
5640 5645 5650 5657 5662 5669 5674 5679 5684 5691 5696 5701 5707 5714 5721 5727 5733 5740 5745 5750 5756 5761 5765 5770 5774 5779 5782 5786 5790 5793 5796 5799 5801 5804 5806 5808 5809 5810 5812 5812 5813 5813 5814 5814
5633 5638 5644 5649 5654 5659 5665 5670 5676 5682 5687 5692 5697 5704 5711 5717 5724 5731 5736 5742 5747 5752 5757 5762 5766 5771 5775 5779 5782 5785 5788 5791 5794 5796 5798 5800 5802 5803 5804 5805 5806 5806 5806 5807
5627 5633 5637 5641 5646 5651 5656 5663 5669 5674 5678 5682 5688 5694 5702 5709 5715 5722 5728 5733 5739 5744 5749 5754 5758 5763 5767 5771 5774 5777 5780 5783 5786 5789 5791 5793 5794 5795 5797 5798 5799 5799 5799 5799
5620 5626 5629 5634 5639 5644 5650 5656 5661 5665 5670 5674 5679 5685 5693 5700 5706 5713 5719 5725 5731 5736 5741 5746 5750 5754 5759 5762 5766 5769 5772 5775 5778 5780 5782 5784 5786 5788 5789 5790 5791 5791 5791 5791
5614 5619 5623 5628 5633 5638 5643 5648 5653 5657 5661 5666 5671 5676 5686 5691 5698 5705 5711 5717 5722 5727 5732 5737 5742 5746 5750 5754 5757 5761 5764 5767 5769 5772 5774 5776 5778 5779 5781 5782 5782 5783 5783 5783
5609 5613 5617 5622 5627 5631 5635 5641 5645 5648 5652 5657 5664 5668 5676 5684 5691 5698 5703 5708 5713 5719 5724 5728 5733 5737 5741 5745 5749 5752 5755 5758 5761 5763 5765 5768 5770 5771 5772 5773 5774 5774 5774 5774
5603 5607 5611 5616 5620 5624 5628 5633 5637 5640 5643 5649 5657 5660 5668 5677 5683 5688 5694 5699 5704 5709 5715 5719 5724 5728 5732 5737 5740 5744 5747 5750 5752 5754 5757 5759 5761 5762 5763 5764 5765 5765 5766 5765
5598 5602 5606 5610 5614 5618 5622 5627 5632 5635 5639 5644 5649 5652 5660 5668 5674 5679 5685 5690 5695 5700 5705 5710 5715 5719 5724 5728 5731 5735 5738 5741 5743 5746 5748 5750 5752 5753 5754 5755 5756 5756 5756 5756
5593 5598 5602 5605 5609 5613 5616 5620 5625 5629 5632 5636 5641 5646 5653 5659 5664 5670 5676 5681 5686 5691 5696 5701 5705 5710 5714 5718 5722 5725 5728 5731 5734 5736 5738 5740 5742 5743 5745 5746 5746 5746 5746 5746
5589 5593 5596 5600 5603 5606 5611 5615 5619 5622 5625 5629 5634 5639 5645 5650 5656 5662 5667 5672 5677 5682 5687 5691 5696 5701 5705 5709 5712 5716 5719 5722 5724 5727 5729 5731 5732 5734 5735 5736 5736 5736 5736 5736
5584 5588 5591 5594 5597 5601 5605 5609 5612 5615 5619 5623 5627 5634 5638 5643 5649 5654 5659 5663 5668 5673 5677 5682 5687 5691 5696 5699 5703 5706 5709 5712 5714 5717 5719 5721 5722 5724 5724 5725 5726 5726 5726 5725
5579 5582 5585 5589 5592 5595 5598 5602 5606 5610 5613 5617 5621 5628 5630 5636 5640 5645 5650 5654 5659 5663 5668 5673 5677 5682 5686 5690 5693 5696 5699 5702 5704 5707 5708 5710 5712 5713 5714 5715 5715 5715 5715 5714
5574 5577 5580 5583 5588 5590 5592 5596 5600 5604 5607 5610 5614 5621 5623 5628 5632 5636 5641 5645 5650 5655 5659 5664 5668 5672 5676 5680 5683 5686 5689 5692 5694 5696 5698 5699 5701 5702 5703 5704 5704 5704 5703 5703
5569 5572 5575 5578 5580 5584 5587 5590 5593 5597 5599 5603 5608 5612 5616 5620 5623 5628 5632 5637 5641 5646 5650 5654 5658 5662 5666 5669 5673 5676 5679 5681 5683 5685 5687 5688 5690 5691 5691 5692 5692 5692 5692 5692
5564 5566 5569 5572 5575 5577 5580 5584 5587 5590 5593 5597 5601 5605 5609 5612 5615 5619 5623 5628 5632 5637 5641 5645 5649 5652 5656 5659 5663 5666 5668 5671 5673 5675 5676 5677 5678 5679 5680 5680 5681 5680 5680 5680
5559 5561 5564 5566 5569 5571 5573 5577 5580 5583 5586 5590 5593 5598 5601 5604 5607 5611 5615 5619 5623 5627 5632 5635 5639 5642 5646 5649 5652 5655 5658 5660 5662 5664 5665 5666 5667 5668 5668 5669 5669 5669 5669 5668
5554 5556 5558 5560 5563 5564 5568 5571 5573 5576 5580 5583 5586 5591 5593 5596 5599 5603 5606 5610 5614 5618 5622 5626 5629 5632 5636 5639 5642 5645 5647 5649 5651 5653 5654 5655 5656 5657 5657 5657 5657 5657 5657 5656
5549 5550 5552 5554 5557 5558 5564 5565 5566 5569 5572 5575 5578 5582 5585 5588 5591 5594 5598 5601 5605 5608 5612 5616 5619 5622 5626 5629 5631 5634 5636 5639 5640 5642 5643 5644 5645 5645 5646 5646 5646 5645 5645 5644
5543 5545 5546 5547 5548 5551 5556 5558 5560 5562 5565 5568 5570 5574 5577 5579 5582 5586 5589 5592 5595 5599 5603 5606 5609 5612 5615 5618 5621 5623 5626 5628 5629 5631 5632 5633 5634 5634 5634 5634 5634 5633 5633 5632
5538 5539 5540 5541 5542 5544 5550 5551 5552 5555 5557 5560 5562 5565 5568 5570 5574 5578 5580 5583 5586 5590 5593 5596 5599 5602 5605 5608 5610 5613 5615 5617 5618 5619 5620 5621 5622 5622 5622 5622 5622 5621 5621 5620
5532 5532 5534 5535 5535 5537 5542 5543 5545 5548 5551 5552 5553 5556 5559 5562 5565 5569 5571 5574 5577 5580 5583 5586 5589 5592 5594 5597 5599 5602 5604 5605 5607 5608 5609 5610 5610 5611 5611 5610 5610 5609 5608 5607
5526 5527 5528 5528 5529 5534 5534 5535 5537 5539 5541 5543 5545 5548 5550 5553 5556 5559 5561 5564 5567 5570 5573 5575 5578 5581 5584 5586 5588 5591 5592 5594 5595 5596 5597 5598 5598 5599 5599 5599 5598 5597 5596 5595
5520 5522 5521 5523 5525 5526 5526 5527 5529 5530 5532 5534 5536 5539 5541 5544 5547 5549 5552 5555 5557 5560 5562 5565 5568 5570 5573 5575 5577 5579 5581 5582 5583 5585 5585 5586 5587 5587 5587 5586 5585 5585 5583 5582
5515 5515 5515 5516 5517 5518 5519 5520 5521 5522 5524 5526 5528 5530 5533 5535 5537 5540 5542 5545 5547 5549 5551 5554 5557 5559 5562 5564 5566 5568 5569 5571 5572 5573 5574 5574 5575 5575 5575 5574 5573 5572 5571 5569
5509 5508 5508 5509 5510 5511 5512 5513 5514 5515 5516 5518 5520 5521 5523 5526 5528 5530 5532 5535 5537 5539 5541 5543 5546 5549 5551 5553 5555 5557 5558 5559 5561 5561 5562 5562 5563 5563 5562 5561 5560 5559 5558 5556
5503 5503 5502 5503 5504 5504 5505 5506 5507 5508 5509 5510 5512 5513 5515 5517 5519 5521 5523 5525 5527 5529 5531 5533 5536 5538 5540 5542 5544 5545 5547 5548 5549 5550 5550 5550 5551 5550 5550 5549 5548 5546 5545 5544
Wind_Speed
35 39 40 40 41 42 42 44 44 46 47 48 50 50 49 48 46 45 45 44 44 43 43 42 41 40 39 38 37 37 37 36 35 34 34 33 33 32 32 32 32 33 33 32
33 36 37 37 39 40 41 42 42 44 46 47 49 50 49 49 47 46 46 45 44 44 43 42 41 41 40 39 38 37 37 37 36 36 35 34 34 34 33 33 33 33 33 33
31 32 34 36 37 39 40 41 42 43 44 46 47 49 49 49 47 46 46 46 45 44 43 42 42 41 40 39 38 38 38 38 37 37 36 35 35 35 34 34 34 34 34 34
29 30 32 34 35 37 38 39 40 40 43 45 46 47 48 48 47 46 45 45 45 44 44 43 42 42 41 40 39 39 39 39 38 37 37 37 36 35 35 35 35 35 35 35
29 30 31 32 33 35 36 37 39 39 41 44 45 46 47 47 47 45 44 45 45 45 44 43 43 42 42 41 40 39 39 39 39 39 38 37 37 37 36 36 36 36 36 36
28 29 29 30 30 32 34 35 37 39 40 44 44 45 46 46 45 44 44 44 45 45 45 44 44 43 42 42 41 41 40 40 40 39 39 38 38 37 38 37 37 37 37 38
28 29 30 30 30 31 32 34 36 37 41 43 42 44 45 44 44 44 43 43 44 44 45 45 45 44 43 42 42 41 41 40 40 40 39 39 38 38 38 38 38 39 39 40
27 29 30 30 31 31 31 32 34 35 38 41 41 42 43 43 43 43 43 43 43 44 45 45 45 44 44 43 43 42 41 41 41 41 40 40 40 40 39 39 40 40 40 41
26 27 28 28 29 30 31 33 33 34 37 38 39 40 41 42 43 43 43 43 43 44 44 44 45 44 44 43 43 42 42 42 42 42 42 41 41 41 41 41 41 41 42 42
25 26 27 27 28 30 31 31 32 34 36 37 38 39 39 41 41 42 42 42 43 44 44 44 44 44 43 43 43 43 43 43 43 42 42 42 43 43 43 43 43 43 43 43
24 25 27 27 28 30 31 31 31 32 35 37 38 39 39 39 40 41 41 41 42 42 43 43 43 43 43 43 43 44 44 44 44 44 44 43 44 44 45 45 45 44 44 45
23 24 26 26 26 28 30 31 32 32 34 36 37 38 37 38 39 40 41 41 41 42 42 42 43 43 43 43 43 44 44 44 44 45 45 45 45 45 46 46 46 46 46 45
22 24 25 25 26 28 29 30 31 33 34 35 36 35 35 36 37 38 39 40 40 41 42 42 43 43 43 43 44 43 44 44 45 45 46 46 46 46 46 46 46 47 47 46
21 23 25 26 26 28 29 30 30 33 34 35 34 33 33 34 36 37 38 39 39 40 41 42 42 42 43 44 44 44 44 44 44 45 45 46 46 47 47 47 47 47 47 47
20 22 23 24 26 27 29 29 30 32 33 34 34 33 33 33 34 35 37 37 38 38 40 41 42 42 43 43 44 45 44 44 44 45 45 45 46 46 46 47 47 47 47 47
21 22 23 24 24 26 28 29 30 31 32 33 32 33 33 33 34 34 36 37 37 37 39 40 41 41 42 43 43 44 44 44 44 44 44 44 44 44 45 45 46 46 47 47
22 22 22 23 24 25 26 27 29 31 32 33 32 32 33 33 33 34 35 36 36 37 38 39 40 41 41 42 42 43 43 44 44 44 44 43 44 44 45 46 46 47 47 48
23 23 23 23 24 26 26 26 28 30 31 32 33 32 32 32 33 35 35 36 37 37 37 38 39 40 41 42 42 43 44 44 44 44 44 44 44 45 45 46 46 47 48 48
22 23 23 23 25 26 26 25 26 28 29 31 33 34 33 33 33 34 35 37 37 38 38 39 39 40 42 43 43 44 44 45 45 45 45 45 45 46 46 46 46 47 48 48
21 22 24 24 25 26 26 26 26 27 29 29 30 32 34 34 34 34 34 35 37 38 39 40 40 41 42 43 44 44 44 45 45 45 45 46 46 46 47 46 47 47 47 48
20 20 22 24 26 26 26 27 27 28 29 29 29 31 32 33 34 34 34 35 37 38 39 40 41 41 41 42 43 43 43 44 44 45 45 45 45 45 46 46 46 46 46 47
19 20 21 22 24 24 25 27 28 28 29 29 30 30 31 32 33 34 35 36 37 38 39 40 40 40 40 41 41 42 42 43 43 44 44 44 44 44 45 46 46 45 46 46
18 19 21 23 23 23 24 26 27 28 29 29 30 30 31 31 32 33 34 34 35 36 38 39 40 40 39 40 41 41 42 42 42 42 42 43 43 43 43 44 44 45 46 46
17 18 20 22 22 23 23 24 25 26 27 29 30 31 32 31 31 32 33 33 34 35 36 37 38 39 40 40 40 41 41 41 41 42 42 42 43 43 44 44 44 45 45 45
17 18 19 20 20 21 22 23 24 25 26 27 28 29 30 31 30 31 32 33 33 34 35 36 38 39 39 40 40 40 40 41 42 42 42 42 42 42 43 43 44 44 45 45
17 18 18 18 19 20 20 21 23 24 24 24 25 26 27 29 30 31 32 33 33 34 35 36 37 37 37 38 39 39 39 40 40 40 41 41 41 42 42 42 42 42 42 42
Wind_Direction
231 230 229 228 228 228 229 229 229 228 227 228 228 227 225 225 225 225 226 227 227 228 229 230 231 233 234 236 237 239 239 240 242 244 247 249 251 254 255 257 260 261 262 263
231 231 228 228 227 226 227 228 228 228 228 228 227 227 225 224 225 226 226 227 227 228 229 230 231 233 234 235 237 238 240 240 242 244 246 249 252 253 255 257 260 261 262 263
230 230 227 226 226 226 226 226 227 228 228 228 228 227 226 225 225 225 226 227 227 227 228 230 231 233 234 235 237 238 239 240 242 244 246 248 251 252 255 258 260 262 263 264
227 225 225 224 225 226 227 226 227 228 228 228 227 227 225 224 225 225 225 227 227 228 229 230 231 232 234 236 237 238 239 241 242 244 246 248 250 253 255 258 259 261 263 264
224 222 223 224 225 226 227 227 227 227 228 229 228 229 225 224 225 224 225 227 228 228 229 231 232 233 234 236 238 239 240 242 243 245 247 249 251 253 255 258 260 261 263 265
223 222 222 222 223 225 226 225 226 228 229 229 227 230 227 224 225 225 226 227 228 229 230 231 233 234 236 237 239 240 241 242 244 246 248 250 252 254 256 258 260 261 263 265
222 223 223 222 222 223 223 223 225 227 228 230 228 231 230 225 225 226 226 227 228 229 231 232 233 235 236 238 240 241 242 243 244 246 248 250 252 254 256 258 260 262 264 265
224 224 222 223 223 222 223 225 226 229 230 230 229 232 231 226 225 226 227 228 229 230 231 232 233 235 236 238 239 241 242 243 245 247 249 251 253 255 256 258 261 262 264 266
225 225 223 225 226 226 225 226 227 230 232 234 233 233 232 228 226 226 227 228 229 231 233 234 234 235 236 237 239 241 242 244 246 247 249 251 253 255 257 259 261 263 265 266
226 226 224 225 227 227 227 228 229 231 233 235 235 234 233 229 228 228 229 230 231 232 233 234 234 235 237 238 239 240 242 245 246 248 250 252 254 256 258 261 262 264 265 267
225 227 226 226 228 230 228 227 230 233 234 234 237 237 234 232 231 231 231 231 231 232 233 234 236 236 237 238 240 241 244 246 248 250 252 254 256 258 259 261 263 265 266 267
227 228 230 230 229 229 230 230 230 233 236 236 238 240 235 235 234 233 233 233 232 233 233 234 235 236 238 240 241 243 245 247 249 252 254 255 257 259 260 262 264 265 267 268
230 231 231 230 230 227 227 228 230 234 237 238 238 239 238 238 236 236 234 234 234 234 234 235 236 237 238 240 242 244 247 248 251 252 254 256 257 259 261 263 264 265 266 268
232 234 236 236 235 233 229 229 231 233 236 239 237 238 238 238 238 238 237 236 235 235 235 235 236 238 239 241 243 245 248 250 252 253 255 256 258 260 262 263 265 266 267 268
233 234 236 238 237 235 233 232 232 233 235 238 237 238 238 238 238 238 238 238 237 237 237 237 238 239 240 241 243 246 248 250 252 254 256 257 259 261 262 264 265 266 267 269
237 237 237 238 238 237 235 233 233 233 233 235 237 238 238 239 239 239 239 239 239 239 238 238 239 240 241 242 244 246 248 250 252 254 256 258 260 262 263 264 266 267 268 269
241 240 241 242 240 240 237 235 236 236 235 236 237 237 238 240 241 238 238 238 238 238 239 239 240 240 241 242 244 246 248 250 252 255 257 259 261 263 264 265 266 268 269 269
244 243 244 245 242 242 239 238 240 239 237 238 239 238 238 239 240 239 238 238 237 238 238 238 239 240 241 243 245 247 249 251 253 255 257 259 261 263 265 266 267 268 269 270
246 245 245 246 245 244 240 238 240 240 239 239 240 239 239 240 241 240 239 238 238 239 239 240 241 242 243 244 246 248 250 252 254 256 258 259 261 263 265 266 268 269 270 271
247 246 246 246 247 245 241 240 240 240 240 240 241 241 241 241 243 242 240 240 240 241 242 242 243 244 244 246 247 250 251 253 255 256 258 260 262 264 265 266 268 270 271 271
250 247 247 248 249 248 244 243 243 243 242 241 241 240 241 241 242 242 241 241 241 242 243 243 244 245 247 248 248 250 252 253 255 257 258 260 262 264 266 267 269 271 272 273
253 252 251 251 251 251 247 246 246 246 245 246 245 243 243 243 242 242 243 243 244 245 246 247 247 247 248 249 250 251 252 254 256 258 259 261 263 265 267 269 270 272 273 274
256 254 254 253 254 255 252 251 249 248 248 247 246 245 244 243 243 243 243 244 245 245 246 247 248 248 249 250 251 251 253 255 256 258 260 262 263 265 268 269 271 273 274 275
260 258 256 254 253 253 252 251 251 251 251 250 249 246 246 246 245 244 243 243 245 245 245 246 248 248 249 250 251 252 254 255 255 258 260 262 264 266 268 270 272 273 274 275
262 262 261 258 255 253 252 252 252 251 250 250 250 247 246 245 246 245 244 245 246 246 245 246 247 248 249 250 251 253 255 256 258 260 262 263 266 267 269 271 272 274 275 275
264 263 262 263 259 257 255 254 254 252 250 249 247 246 246 246 246 248 248 248 248 249 249 250 249 249 250 252 254 255 257 258 260 261 263 265 266 268 270 272 273 275 276 275